Flag for U.S.A. Weather past 2 weeks in Roanoke, Virginia, U.S.A.

Now
69 °F

Partly cloudy.


Feels Like: 69 °F
Forecast: 64 / 83 °F
Wind: No wind

Location: Roanoke Regional Airport

Current Time: May 29, 2015 at 1:13:32 AM

Latest Report: May 29, 2015 at 12:54 AM


Visibility: 10 mi

Pressure: 30.22 "Hg

Humidity: 84%

Dew point: 64 °F

Location of RoanokeLocation

Historic Weather in Roanoke — Graph

°F

Roanoke temperature yesterday

Maximum temperature yesterday: 86 °F (at 12:54 PM)
Minimum temperature yesterday: 64 °F (at 5:54 AM)
Average temperature yesterday: 76 °F

Past Weeks' High & Low Weather Summary

 TemperatureHumidityPressure
High87 °F (May 18, 3:54 PM)100% (May 17, 1:54 AM)30.47 "Hg (May 17, 1:54 AM)
Low49 °F (May 14, 5:54 AM)23% (May 20, 2:54 PM)29.87 "Hg (May 21, 4:54 PM)
Average69 °F64%30.19 "Hg
* Reported May 13 11:54 PM — May 28 11:54 PM, Roanoke, Weather by CustomWeather, © 2015

Note: Actual official high and low records may vary slightly from our data, if they occured in-between our weather recording intervals... More about our weather records

Advertising

Roanoke weather history for previous 24 hours

 ConditionsComfort  
Time TempWeatherWind HumidityBarometerVisibility
11:54 PM
Thu, May 28
71 °FPassing clouds.No wind78%30.22 "Hg10 mi
10:54 PM74 °FPassing clouds.3 mph69%30.22 "Hg10 mi
9:54 PM74 °FPassing clouds.7 mph71%30.21 "Hg10 mi
8:54 PM76 °FCloudy.5 mph64%30.20 "Hg10 mi
7:54 PM78 °FCloudy.10 mph58%30.20 "Hg10 mi
6:54 PM81 °FBroken clouds.9 mph53%30.16 "Hg10 mi
5:54 PM83 °FCloudy.8 mph48%30.17 "Hg10 mi
4:54 PM86 °FBroken clouds.7 mph39%30.16 "Hg10 mi
3:54 PM86 °FBroken clouds.10 mph42%30.17 "Hg10 mi
2:54 PM85 °FBroken clouds.5 mph40%30.19 "Hg10 mi
1:54 PM82 °FLight rain. Partly sunny.9 mph48%30.20 "Hg10 mi
12:54 PM86 °FScattered clouds.8 mph43%30.21 "Hg10 mi
11:54 AM83 °FScattered clouds.No wind48%30.22 "Hg10 mi
10:54 AM80 °FPartly sunny.8 mph54%30.22 "Hg10 mi
9:54 AM78 °FPartly sunny.3 mph62%30.22 "Hg10 mi
8:54 AM73 °FPartly sunny.3 mph74%30.23 "Hg10 mi
7:54 AM70 °FPartly sunny.6 mph81%30.22 "Hg10 mi
6:54 AM66 °FPartly cloudy.No wind90%30.20 "Hg10 mi
5:54 AM64 °FPassing clouds.No wind94%30.18 "Hg10 mi
4:54 AM66 °FPassing clouds.No wind87%30.16 "Hg10 mi
3:54 AM66 °FPassing clouds.No wind90%30.17 "Hg10 mi
2:54 AM67 °FPassing clouds.3 mph87%30.17 "Hg10 mi
1:54 AM70 °FPassing clouds.6 mph79%30.17 "Hg10 mi
Weather by CustomWeather, © 2015

See weather overviewHow to use our weather pages